Vorticity
6 6 8 10 3 -2 21 6 13 4 -5 11 4 11 9 7 -4 -7 9 1 -1 0 2 5 3 3 5 5 6 4 6 4 4 7 6 5 5 7 10 4 4 4 4 5 5 5 6 8 8
9 7 7 11 -8 2 16 7 5 11 5 12 5 4 6 5 3 6 3 13 5 5 2 4 7 8 6 4 6 4 4 5 4 6 7 6 6 11 7 4 4 4 4 5 5 5 7 9 8
10 9 10 5 12 3 15 -1 3 6 11 11 8 5 7 2 1 -1 -1 1 -4 -4 -0 1 3 6 14 6 5 4 3 5 4 5 7 6 7 11 5 4 4 4 5 5 5 5 7 9 7
9 8 6 3 -10 25 3 -5 -8 3 2 -0 6 10 9 -1 5 2 5 -4 1 3 -0 -3 4 0 8 14 6 5 4 4 5 5 6 7 7 7 4 5 4 4 4 5 5 6 6 8 6
7 6 7 -0 8 10 13 0 -1 3 3 1 2 1 -1 4 7 6 4 5 0 1 3 -1 -2 4 1 7 11 6 5 7 6 4 5 8 8 7 5 5 5 4 5 5 5 6 6 8 7
10 6 -0 6 16 7 8 0 2 1 2 4 6 5 6 8 1 1 1 0 -4 3 11 3 -4 -2 -4 1 6 8 6 3 4 4 4 6 9 8 5 5 5 5 5 5 5 6 6 7 8
9 8 5 7 8 12 2 3 2 5 4 3 4 11 11 13 17 16 10 10 13 12 8 13 4 3 4 5 3 1 7 1 4 4 5 4 8 8 6 5 5 5 5 5 5 5 7 7 8
7 9 6 9 11 13 15 11 8 7 7 8 6 19 13 17 12 5 9 11 10 8 7 9 15 3 1 0 8 12 6 8 5 4 4 4 7 7 7 5 5 5 5 5 5 5 6 6 7
6 7 3 3 8 8 13 7 5 4 6 7 7 16 9 8 5 5 6 7 9 11 9 8 10 13 7 5 2 -1 10 6 9 4 5 5 5 8 7 6 6 4 6 5 5 4 5 6 6
7 2 10 8 3 4 5 5 7 7 9 9 12 7 11 13 7 6 10 11 10 10 11 6 7 11 14 9 2 7 -2 13 4 7 5 5 4 7 7 6 6 4 6 5 5 4 5 5 6
4 5 10 4 6 4 5 4 4 6 10 12 6 9 7 11 9 8 14 13 12 11 11 11 10 5 10 9 12 4 7 3 10 7 5 5 4 5 8 6 6 5 4 5 5 4 5 5 5
7 8 4 6 7 7 7 5 4 7 13 7 10 10 3 6 8 9 8 10 11 8 8 9 11 10 8 7 5 8 1 -1 10 5 9 7 4 4 9 7 6 7 5 6 6 5 5 5 5
3 5 7 12 4 4 9 5 13 14 14 3 6 2 3 7 10 9 8 8 13 11 7 9 10 11 13 13 7 7 8 5 -4 16 -1 11 6 3 7 8 7 7 6 6 6 5 5 5 5
5 4 5 6 9 4 9 18 1 14 6 10 9 4 6 7 5 2 6 12 12 11 15 10 7 8 9 8 14 7 8 6 5 6 12 5 7 4 5 9 7 7 7 6 6 6 5 4 5
18 14 8 1 3 19 21 0 1 -6 13 5 10 4 6 12 10 9 5 5 10 12 11 12 14 9 6 9 12 13 11 8 -1 0 4 9 4 6 4 8 7 7 8 5 5 5 5 4 5
7 9 13 13 19 18 -0 2 0 -1 7 -3 7 5 10 14 12 7 6 10 12 15 10 7 8 12 6 9 11 11 8 10 9 1 1 27 3 7 4 6 8 6 8 7 5 5 5 4 4
22 1 7 18 21 6 2 4 10 -3 5 14 13 6 14 11 7 7 9 11 15 13 8 11 11 14 14 9 12 11 13 7 7 1 8 -2 11 3 8 4 8 8 7 7 6 6 5 6 4
12 16 28 18 10 -10 -13 5 13 -4 8 6 8 11 16 6 5 7 8 10 14 13 11 13 12 12 11 13 11 12 12 15 5 19 2 -11 9 5 -1 3 6 8 7 7 6 5 6 5 5
10 11 5 5 -0 10 2 20 8 3 8 13 8 17 13 4 7 7 11 11 14 13 12 11 9 12 11 13 11 14 14 17 10 21 28 30 7 -2 -3 4 5 7 8 8 7 7 5 5 4
10 7 11 11 2 -1 2 9 9 14 12 16 24 19 7 5 9 13 13 12 12 13 11 9 9 8 9 16 14 15 15 12 16 -2 -6 -32 25 29 2 7 7 8 9 7 6 6 6 3 5
-4 1 -2 2 10 12 19 26 44 28 30 35 24 7 3 6 11 6 8 12 10 14 15 11 10 7 7 10 11 11 11 8 2 6 19 31 1 23 9 5 4 9 10 9 8 6 6 6 6
13 4 5 8 16 12 1 -3 -11 -18 -4 7 3 3 6 7 7 8 14 13 12 9 11 14 15 11 10 16 11 7 8 8 9 7 16 16 21 5 46 3 4 7 10 11 8 8 7 7 6
16 33 17 15 11 17 6 9 15 42 26 12 19 18 16 13 11 14 16 9 9 9 12 10 15 12 12 19 15 4 10 8 9 10 30 21 30 31 -5 18 11 10 9 12 9 8 7 7 8
25 20 5 10 18 24 5 -12 30 34 36 20 15 17 11 10 -0 -4 6 24 8 9 2 13 12 15 11 17 14 5 4 10 -7 33 14 29 21 30 -32 36 8 11 10 8 8 7 8 8 7
21 17 16 16 6 9 32 41 -47 28 48 16 8 3 4 4 4 7 2 -19 12 22 6 4 15 16 12 14 16 9 5 13 -7 26 -23 9 -12 4 0 88 -0 7 13 8 9 8 8 7 7
3 9 -15 10 11 9 6 14 6 25 6 5 7 5 5 5 5 11 8 17 12 5 15 21 9 14 16 20 13 17 10 2 10 2 9 27 24 35 -7 5 32 4 11 10 9 7 7 7 6
-14 2 3 -2 24 16 13 13 41 20 -12 -6 1 4 1 7 11 -2 1 4 6 11 11 13 16 4 19 14 17 10 15 -1 5 13 16 25 -3 8 22 30 32 -4 7 9 8 7 6 6 6
5 7 24 14 13 8 28 19 29 -0 9 26 -4 -8 -8 11 15 15 -2 7 11 5 13 9 20 1 22 11 2 19 18 -9 22 22 8 -9 9 13 22 37 28 5 6 7 8 6 6 6 6
6 17 10 5 3 6 8 7 24 9 4 3 5 9 6 5 2 -1 4 3 8 9 10 15 17 6 13 17 12 4 13 46 2 8 8 21 8 -1 7 36 28 4 4 4 8 7 7 8 7
49 24 28 19 -14 14 7 10 13 2 11 8 -5 -5 2 3 5 0 3 4 8 11 11 14 14 18 6 22 6 3 5 12 -6 43 20 -0 25 11 11 10 66 -2 4 5 8 9 8 8 7
Height
3104 3104 3105 3106 3112 3107 3104 3106 3105 3106 3107 3108 3109 3111 3113 3114 3115 3119 3117 3118 3119 3119 3120 3121 3122 3123 3125 3126 3127 3129 3131 3131 3132 3134 3135 3136 3137 3138 3139 3140 3142 3143 3143 3144 3145 3146 3147 3147 3148
3103 3104 3105 3105 3106 3104 3104 3103 3103 3105 3106 3108 3109 3110 3111 3111 3112 3113 3115 3116 3117 3118 3119 3120 3122 3123 3124 3125 3126 3128 3129 3131 3132 3134 3135 3135 3137 3138 3140 3141 3142 3143 3144 3145 3145 3146 3147 3148 3149
3103 3104 3105 3104 3102 3101 3102 3102 3103 3103 3104 3106 3108 3108 3108 3109 3110 3111 3112 3114 3116 3117 3118 3119 3120 3121 3122 3124 3124 3126 3128 3130 3132 3133 3134 3135 3136 3137 3140 3141 3142 3143 3144 3145 3145 3146 3147 3148 3148
3103 3104 3105 3102 3100 3101 3101 3101 3101 3102 3103 3104 3106 3106 3106 3107 3107 3109 3109 3110 3112 3115 3116 3118 3119 3121 3122 3122 3123 3124 3126 3128 3130 3132 3133 3135 3135 3137 3138 3140 3142 3143 3143 3144 3145 3146 3146 3148 3148
3102 3102 3101 3098 3098 3099 3099 3098 3098 3098 3100 3101 3102 3103 3103 3103 3103 3105 3106 3107 3108 3111 3113 3115 3116 3118 3120 3121 3122 3123 3124 3127 3128 3130 3132 3134 3136 3136 3138 3139 3140 3142 3143 3143 3145 3146 3147 3148 3149
3100 3100 3098 3096 3096 3096 3096 3095 3094 3095 3096 3097 3098 3100 3099 3100 3100 3100 3101 3101 3102 3104 3107 3111 3112 3114 3117 3119 3120 3122 3124 3125 3126 3128 3130 3132 3134 3136 3137 3139 3140 3142 3143 3143 3145 3146 3148 3149 3150
3099 3098 3096 3094 3093 3093 3093 3093 3092 3093 3093 3093 3094 3094 3094 3094 3095 3095 3095 3095 3096 3098 3100 3104 3107 3108 3112 3115 3117 3119 3121 3122 3123 3125 3128 3130 3132 3134 3135 3137 3139 3141 3142 3143 3144 3146 3148 3149 3150
3097 3096 3093 3092 3090 3090 3089 3089 3089 3089 3090 3089 3089 3090 3090 3089 3089 3088 3090 3091 3092 3092 3093 3097 3101 3103 3106 3110 3113 3114 3118 3119 3121 3122 3125 3127 3130 3132 3134 3135 3137 3139 3141 3142 3143 3145 3148 3148 3149
3094 3093 3090 3089 3087 3086 3087 3086 3085 3085 3084 3083 3083 3086 3086 3084 3083 3084 3085 3086 3088 3089 3089 3090 3094 3098 3100 3103 3108 3111 3112 3115 3117 3118 3121 3124 3127 3129 3131 3133 3135 3137 3139 3140 3142 3144 3146 3147 3149
3091 3088 3087 3086 3085 3084 3083 3083 3081 3081 3080 3079 3079 3080 3080 3079 3077 3078 3080 3082 3082 3084 3085 3085 3088 3092 3094 3098 3101 3105 3108 3110 3112 3115 3117 3121 3123 3126 3128 3131 3133 3135 3137 3139 3140 3142 3145 3147 3148
3086 3084 3083 3082 3081 3080 3078 3078 3076 3075 3076 3076 3074 3075 3074 3074 3073 3073 3074 3077 3078 3078 3080 3081 3083 3086 3089 3091 3095 3098 3102 3105 3107 3110 3114 3117 3119 3121 3125 3127 3131 3132 3134 3137 3138 3141 3143 3145 3147
3081 3081 3080 3079 3077 3075 3074 3072 3071 3071 3072 3069 3070 3070 3069 3069 3068 3068 3068 3071 3073 3073 3074 3076 3078 3079 3082 3085 3088 3092 3096 3099 3102 3106 3109 3113 3115 3118 3121 3124 3128 3130 3132 3135 3137 3140 3142 3144 3145
3075 3077 3074 3074 3072 3070 3069 3068 3065 3066 3065 3065 3064 3064 3064 3063 3063 3063 3063 3065 3067 3068 3070 3071 3072 3074 3076 3078 3082 3085 3089 3093 3097 3100 3104 3107 3111 3114 3117 3121 3124 3127 3130 3132 3134 3137 3140 3142 3144
3071 3069 3068 3066 3066 3063 3061 3062 3060 3064 3059 3061 3059 3058 3058 3057 3057 3056 3057 3057 3059 3062 3063 3065 3066 3068 3070 3071 3075 3078 3082 3086 3090 3094 3097 3102 3106 3109 3112 3115 3120 3123 3127 3129 3130 3134 3137 3140 3142
3065 3061 3060 3060 3059 3056 3056 3054 3055 3057 3055 3055 3054 3053 3051 3051 3051 3051 3051 3051 3052 3054 3055 3056 3058 3061 3062 3064 3067 3069 3073 3077 3081 3086 3091 3095 3099 3103 3107 3110 3115 3119 3123 3124 3125 3129 3133 3136 3139
3059 3057 3052 3054 3052 3050 3052 3046 3051 3050 3050 3050 3049 3047 3045 3045 3045 3045 3045 3045 3046 3046 3048 3050 3050 3052 3054 3056 3058 3061 3065 3070 3073 3077 3084 3087 3093 3097 3101 3104 3109 3114 3117 3119 3121 3125 3129 3133 3136
3053 3049 3047 3048 3049 3047 3046 3040 3047 3043 3042 3042 3042 3041 3039 3039 3039 3039 3039 3039 3039 3040 3041 3041 3042 3044 3046 3049 3051 3053 3058 3062 3065 3071 3075 3078 3084 3090 3094 3099 3103 3108 3111 3114 3116 3120 3125 3129 3131
3046 3046 3042 3041 3044 3043 3041 3034 3038 3038 3035 3035 3035 3034 3033 3033 3034 3034 3034 3033 3033 3034 3034 3035 3036 3037 3040 3042 3044 3047 3050 3054 3058 3062 3066 3073 3072 3078 3087 3092 3096 3100 3104 3107 3110 3115 3120 3124 3127
3042 3040 3037 3035 3040 3038 3035 3030 3031 3031 3026 3026 3027 3026 3027 3028 3029 3029 3029 3028 3028 3028 3028 3029 3030 3032 3033 3035 3037 3039 3042 3047 3050 3054 3058 3061 3061 3066 3074 3083 3089 3092 3096 3103 3106 3109 3113 3116 3121
3034 3034 3031 3031 3032 3032 3028 3024 3024 3024 3020 3019 3019 3019 3021 3023 3024 3024 3024 3024 3023 3023 3023 3023 3024 3025 3026 3028 3030 3033 3037 3040 3042 3046 3048 3042 3050 3052 3053 3067 3081 3085 3090 3094 3097 3102 3107 3111 3116
3029 3030 3028 3029 3026 3025 3023 3018 3018 3017 3014 3013 3014 3015 3017 3019 3020 3020 3020 3021 3019 3018 3018 3018 3019 3020 3020 3022 3024 3027 3030 3033 3036 3038 3039 3041 3044 3047 3047 3057 3069 3077 3083 3088 3093 3096 3100 3108 3112
3024 3026 3024 3022 3023 3020 3020 3015 3012 3016 3015 3012 3013 3013 3014 3015 3015 3016 3016 3015 3014 3014 3013 3013 3013 3015 3015 3016 3018 3021 3023 3025 3027 3029 3026 3029 3033 3040 3041 3045 3058 3067 3075 3081 3085 3091 3097 3101 3107
3019 3021 3018 3018 3017 3017 3014 3016 3005 3008 3009 3008 3008 3009 3010 3011 3011 3011 3011 3011 3010 3010 3009 3008 3008 3008 3009 3010 3013 3016 3017 3017 3018 3019 3017 3015 3017 3028 3034 3036 3047 3057 3065 3073 3079 3084 3089 3097 3102
3016 3014 3014 3012 3013 3012 3005 3012 3001 3004 3002 3002 3004 3004 3005 3006 3006 3006 3007 3007 3006 3006 3005 3005 3004 3004 3003 3004 3006 3009 3010 3010 3010 3011 3008 3007 3005 3014 3024 3029 3038 3048 3058 3064 3071 3077 3084 3090 3096
3012 3011 3010 3008 3008 3003 3000 3002 3002 3001 3000 3001 3001 3001 3002 3002 3002 3003 3003 3004 3003 3002 3001 3000 3000 2999 2998 2998 3000 3002 3004 3005 3003 3003 3002 3002 3002 3008 3021 3020 3027 3040 3047 3056 3063 3069 3076 3082 3088
3010 3009 3008 3003 3002 3000 2998 2998 2996 2995 2996 2997 2998 2998 2998 2998 2998 3000 2999 2999 2999 2999 2997 2996 2995 2994 2993 2993 2993 2995 2997 2997 2998 2998 2996 2996 3001 3007 3010 3014 3022 3031 3039 3047 3055 3062 3068 3074 3080
3007 3005 3004 3001 3000 2998 2993 2993 2995 2992 2995 2992 2993 2994 2995 2994 2995 2996 2996 2996 2996 2995 2993 2992 2992 2990 2989 2989 2988 2990 2991 2990 2992 2992 2991 2992 2997 3000 3004 3008 3011 3021 3031 3040 3048 3054 3060 3067 3074
3005 3004 3001 2998 2996 2993 2986 2987 2988 2991 2991 2990 2989 2988 2990 2990 2990 2993 2994 2993 2992 2991 2989 2988 2987 2986 2985 2984 2985 2985 2986 2985 2986 2986 2986 2989 2991 2995 2996 2999 3004 3012 3023 3032 3039 3046 3052 3059 3065
2998 2998 2998 2997 2995 2987 2985 2986 2987 2986 2985 2985 2986 2986 2986 2986 2987 2989 2989 2989 2987 2986 2985 2985 2983 2982 2981 2980 2980 2981 2980 2974 2979 2980 2983 2985 2990 2989 2990 2993 2999 3007 3013 3022 3031 3038 3045 3052 3058
2992 2995 2996 2996 2994 2991 2988 2987 2985 2984 2984 2984 2983 2983 2982 2983 2985 2984 2986 2985 2984 2983 2982 2981 2979 2978 2977 2975 2975 2975 2973 2972 2970 2973 2976 2978 2981 2982 2985 2987 2992 3002 3008 3017 3026 3034 3040 3045 3050